DW6954 Weather Reports


time (UTC)temp
C
wind
direction
speed
KPH
gust
KPH
rain 1hr
cm
rain 24hr
cm
rain mn
cm
humidity
%
barometer
mb
20260504050508 17 353 11.3 29.0 0.00 0.00 0.00 61 1005.3
20260504050014 18 38 12.9 29.0 0.00 0.00 0.00 60 1005.4
20260504045507 18 325 11.3 25.7 0.00 0.05 0.00 60 1005.4
20260504045006 18 39 11.3 25.7 0.00 0.05 0.00 60 1005.2
20260504044506 18 14 8.0 25.7 0.00 0.05 0.00 60 1005.4
20260504044007 18 39 8.0 25.7 0.00 0.05 0.00 61 1005.4
20260504043508 18 36 9.7 22.5 0.00 0.05 0.00 60 1005.4
20260504043006 18 61 8.0 29.0 0.00 0.05 0.00 60 1005.4
20260504042506 18 350 8.0 19.3 0.00 0.05 0.00 59 1005.4
20260504042009 18 346 8.0 24.1 0.00 0.05 0.00 59 1005.4
20260504041506 18 351 11.3 24.1 0.00 0.05 0.00 58 1005.4
20260504041005 18 348 9.7 20.9 0.00 0.05 0.00 58 1005.3
20260504040508 18 24 8.0 35.4 0.00 0.05 0.00 59 1005.4
20260504040005 18 44 12.9 29.0 0.00 0.05 0.00 58 1005.4
20260504035504 18 65 9.7 27.4 0.00 0.05 0.00 59 1005.3
20260504035004 18 4 12.9 29.0 0.00 0.05 0.00 59 1005.2
20260504034503 18 42 11.3 35.4 0.00 0.05 0.00 59 1005.4
20260504034003 18 11 16.1 35.4 0.00 0.05 0.00 59 1005.4
20260504033603 18 34 9.7 29.0 0.00 0.05 0.00 59 1005.4
20260504033002 18 347 11.3 25.7 0.00 0.05 0.00 59 1005.4
20260504032501 18 19 8.0 25.7 0.00 0.05 0.00 58 1005.5
20260504032001 18 341 9.7 22.5 0.00 0.05 0.00 58 1005.6
20260504031502 18 4 11.3 29.0 0.00 0.05 0.00 58 1005.6
20260504031101 18 189 12.9 30.6 0.00 0.05 0.00 58 1005.6
20260504030600 18 331 11.3 30.6 0.00 0.05 0.00 58 1005.6
20260504030059 18 29 8.0 29.0 0.00 0.05 0.00 60 1005.8
20260504025558 18 54 9.7 29.0 0.00 0.05 0.00 59 1005.8
20260504025057 18 56 9.7 25.7 0.00 0.05 0.00 60 1005.9
20260504024555 18 31 9.7 25.7 0.00 0.05 0.00 60 1006.0
20260504024057 17 31 11.3 25.7 0.00 0.05 0.00 61 1006.0
20260504023553 17 65 11.3 25.7 0.00 0.05 0.00 61 1006.1
20260504023053 17 2 8.0 20.9 0.00 0.05 0.00 63 1006.2
20260504022553 17 323 11.3 22.5 0.00 0.05 0.00 62 1006.3
20260504022052 17 15 11.3 24.1 0.00 0.05 0.00 61 1006.3
20260504021552 17 59 8.0 29.0 0.00 0.05 0.00 62 1006.4
20260504021050 17 250 9.7 29.0 0.00 0.05 0.00 62 1006.5
20260504020550 17 62 11.3 24.1 0.00 0.05 0.00 62 1006.7
20260504020126 17 322 9.7 29.0 0.00 0.05 0.00 62 1006.7
20260504015549 17 57 9.7 29.0 0.00 0.23 0.00 62 1006.8
20260504015049 17 347 9.7 25.7 0.00 0.23 0.00 62 1006.9
20260504014559 17 7 9.7 27.4 0.00 0.23 0.00 62 1006.9
20260504014045 17 1 11.3 27.4 0.00 0.23 0.00 62 1007.0
20260504013545 17 274 11.3 22.5 0.00 0.23 0.00 63 1007.1
20260504013144 17 321 8.0 27.4 0.00 0.23 0.00 64 1007.1
20260504012544 17 3 9.7 27.4 0.00 0.23 0.00 64 1007.1
20260504012046 17 335 9.7 29.0 0.00 0.23 0.00 65 1007.1
20260504011546 17 315 12.9 30.6 0.00 0.23 0.00 66 1007.1
20260504011044 17 20 11.3 30.6 0.00 0.23 0.00 66 1007.1
20260504010544 17 46 9.7 24.1 0.00 0.23 0.00 67 1007.0
20260504010045 17 350 9.7 24.1 0.00 0.23 0.00 66 1007.1
20260504005542 17 42 9.7 24.1 0.00 0.53 0.00 67 1007.1
20260504005042 17 87 9.7 24.1 0.00 0.53 0.00 67 1007.1
20260504004605 17 353 8.0 22.5 0.00 0.53 0.00 68 1007.2
20260504004040 17 80 9.7 25.7 0.00 0.53 0.00 68 1007.2
20260504003539 16 5 9.7 25.7 0.00 0.53 0.00 68 1007.2
20260504003047 16 34 9.7 24.1 0.00 0.53 0.00 68 1007.2
20260504002539 16 349 8.0 22.5 0.00 0.53 0.00 68 1007.1
20260504002038 16 346 11.3 24.1 0.00 0.53 0.00 68 1007.2
20260504001600 16 301 11.3 24.1 0.00 0.53 0.00 68 1007.2
20260504001038 16 17 8.0 29.0 0.00 0.53 0.00 69 1007.1
20260504000538 16 14 11.3 29.0 0.00 0.53 0.00 69 1007.2
20260504000037 16 352 9.7 24.1 0.00 0.53 0.00 69 1007.2
20260503235537 16 345 8.0 27.4 0.00 0.79 0.00 70 1007.2
20260503235034 16 40 8.0 27.4 0.00 0.79 0.00 71 1007.2
20260503234533 16 55 11.3 27.4 0.00 0.79 0.00 71 1007.3
20260503234032 15 340 8.0 29.0 0.00 0.79 0.00 71 1007.4
20260503233531 15 26 9.7 20.9 0.00 0.79 0.00 72 1007.5
20260503233038 15 66 8.0 24.1 0.00 0.79 0.00 72 1007.6
20260503232630 15 336 8.0 24.1 0.00 0.79 0.00 72 1007.5
20260503232031 15 335 8.0 19.3 0.00 0.79 0.00 72 1007.6
20260503231529 15 46 8.0 22.5 0.00 0.79 0.00 72 1007.6
20260503231028 15 347 9.7 22.5 0.00 0.79 0.00 72 1007.6
20260503230527 15 344 9.7 20.9 0.00 0.79 0.00 72 1007.5
20260503230026 15 358 6.4 25.7 0.00 0.79 0.00 73 1007.6
20260503225526 15 1 6.4 20.9 0.00 0.79 0.00 73 1007.6
20260503225026 14 102 9.7 20.9 0.00 0.79 0.00 73 1007.6
20260503224525 14 12 8.0 20.9 0.00 0.79 0.00 74 1007.6
20260503224029 14 53 6.4 14.5 0.00 0.79 0.00 74 1007.6
20260503223524 14 26 4.8 11.3 0.00 0.79 0.00 74 1007.7
20260503223024 13 1 4.8 17.7 0.00 0.79 0.00 74 1007.8
20260503222524 13 335 6.4 17.7 0.00 0.79 0.00 74 1007.7
20260503222024 13 76 4.8 16.1 0.00 0.79 0.00 74 1007.7
20260503221524 13 91 3.2 19.3 0.00 0.79 0.00 75 1007.8
20260503221024 13 83 6.4 19.3 0.00 0.79 0.00 75 1007.7
20260503220523 13 341 1.6 14.5 0.00 0.79 0.00 76 1007.7
20260503220023 12 334 4.8 17.7 0.00 0.79 0.00 77 1007.8
20260503215522 12 351 4.8 17.7 0.00 0.79 0.00 78 1007.8
20260503215022 12 60 3.2 11.3 0.00 0.79 0.00 80 1007.7
20260503214522 12 29 1.6 9.7 0.00 0.79 0.00 80 1007.7
20260503214021 12 327 1.6 9.7 0.00 0.79 0.00 81 1007.7
20260503213521 11 40 3.2 9.7 0.00 0.79 0.00 82 1007.8
20260503213021 11 13 0.0 8.0 0.00 0.79 0.00 83 1007.6
20260503212521 11 15 0.0 4.8 0.00 0.79 0.00 83 1007.6
20260503211521 11 50 0.0 1.6 0.00 0.79 0.00 83 1007.6
20260503211020 11 33 0.0 1.6 0.00 0.79 0.00 83 1007.6
20260503210525 11 62 0.0 1.6 0.00 0.79 0.00 83 1007.6
20260503210020 11 47 0.0 1.6 0.00 0.79 0.00 83 1007.6
20260503205520 11 54 0.0 3.2 0.00 0.79 0.00 83 1007.5
20260503205020 11 34 0.0 3.2 0.00 0.79 0.00 83 1007.6
20260503204519 11 352 0.0 3.2 0.00 0.79 0.00 83 1007.5
20260503204018 11 7 0.0 3.2 0.00 0.79 0.00 84 1007.5
20260503203518 11 33 0.0 4.8 0.00 0.79 0.00 84 1007.4
20260503203040 11 1 0.0 4.8 0.00 0.79 0.00 84 1007.5
20260503202518 11 15 0.0 6.4 0.00 0.79 0.00 84 1007.4
20260503202018 11 18 0.0 6.4 0.00 0.79 0.00 84 1007.4
20260503201517 11 16 1.6 6.4 0.00 0.79 0.00 84 1007.3
20260503201017 11 40 1.6 6.4 0.00 0.79 0.00 84 1007.3
20260503200516 11 6 0.0 3.2 0.00 0.79 0.00 84 1007.2
20260503200016 11 27 0.0 12.9 0.00 0.79 0.00 84 1007.2
20260503195516 11 15 1.6 12.9 0.00 0.79 0.00 84 1007.2
20260503195015 11 31 1.6 6.4 0.00 0.79 0.00 84 1007.2
20260503194532 11 351 1.6 4.8 0.00 0.79 0.00 84 1007.2
20260503194015 11 72 1.6 9.7 0.00 0.79 0.00 84 1007.2
20260503193514 11 347 1.6 9.7 0.00 0.79 0.00 84 1007.2
20260503193014 11 28 1.6 8.0 0.00 0.79 0.00 85 1007.2
20260503192513 11 17 0.0 6.4 0.00 0.79 0.00 84 1007.2
20260503192012 11 48 1.6 8.0 0.00 0.79 0.00 84 1007.5
20260503191010 12 21 1.6 9.7 0.00 0.79 0.00 84 1007.6
20260503190510 12 357 1.6 9.7 0.00 0.79 0.00 84 1007.6
20260503190009 12 24 1.6 8.0 0.00 0.79 0.00 85 1007.6
20260503185513 12 50 1.6 11.3 0.00 0.79 0.00 85 1007.6
20260503185008 12 1 4.8 11.3 0.00 0.79 0.00 85 1007.6
20260503184513 12 38 1.6 8.0 0.00 0.79 0.00 85 1007.7
20260503184008 12 21 1.6 9.7 0.00 0.79 0.00 85 1007.7
20260503183508 12 33 3.2 9.7 0.00 0.79 0.00 86 1007.7
20260503183007 12 50 1.6 8.0 0.00 0.79 0.00 86 1007.8
20260503182507 12 359 1.6 6.4 0.00 0.79 0.00 86 1007.7
20260503182007 11 69 0.0 6.4 0.00 0.79 0.00 86 1007.7
20260503181506 11 45 1.6 6.4 0.00 0.79 0.00 86 1007.8
20260503181005 11 26 0.0 3.2 0.00 0.79 0.00 86 1007.8
20260503180504 11 50 0.0 4.8 0.00 0.79 0.00 85 1007.8
20260503180004 12 21 0.0 4.8 0.00 0.79 0.00 85 1007.9
20260503175504 12 74 0.0 4.8 0.00 0.79 0.00 85 1007.9
20260503175002 12 32 1.6 6.4 0.00 0.79 0.00 85 1007.9
20260503174503 12 64 0.0 6.4 0.00 0.79 0.00 85 1008.0
20260503174002 12 57 1.6 4.8 0.00 0.79 0.00 85 1008.0
20260503173502 12 61 0.0 6.4 0.00 0.79 0.00 84 1008.0
20260503173106 12 33 0.0 9.7 0.00 0.79 0.00 84 1008.0
20260503172559 12 31 1.6 11.3 0.00 0.79 0.00 84 1008.1
20260503172059 12 38 1.6 11.3 0.00 0.79 0.00 84 1008.1
20260503171604 12 30 4.8 11.3 0.00 0.79 0.00 85 1008.1
20260503170558 12 55 1.6 6.4 0.00 0.79 0.00 85 1008.1
20260503150545 13 21 3.2 16.1 0.00 0.79 0.00 82 1008.2
20260503131030 14 14 4.8 14.5 0.00 0.79 0.00 81 1008.6
20260503130529 14 33 4.8 12.9 0.00 0.79 0.00 81 1008.7
20260503120120 14 348 3.2 9.7 0.00 0.79 0.00 79 1009.1
20260503110519 15 69 3.2 9.7 0.00 0.79 0.79 77 1008.4
20260503081524 15 31 0.0 4.8 0.00 0.79 0.79 71 1007.3
20260503081010 15 27 0.0 4.8 0.00 0.79 0.79 71 1007.2
20260503080509 15 24 0.0 3.2 0.00 0.79 0.79 71 1007.3
20260503072503 16 28 0.0 3.2 0.00 0.79 0.79 65 1007.0
20260503072003 17 54 0.0 6.4 0.00 0.79 0.79 64 1007.1
20260503071502 17 329 0.0 6.4 0.00 0.79 0.79 62 1007.1
20260503071001 17 310 0.0 3.2 0.00 0.79 0.79 62 1007.0
20260503070501 17 318 0.0 3.2 0.00 0.79 0.79 60 1006.9
20260503060118 17 34 4.8 11.3 0.00 0.79 0.79 78 1006.3
20260503055101 17 8 1.6 6.4 0.00 0.79 0.79 81 1006.5
20260503054059 16 343 1.6 8.0 0.00 0.79 0.79 82 1006.6
20260503053559 16 33 1.6 8.0 0.00 0.79 0.79 82 1006.6
20260503053058 16 21 1.6 8.0 0.00 0.79 0.79 82 1006.5
20260503052558 16 357 1.6 8.0 0.00 0.79 0.79 82 1006.5
20260503052057 16 55 3.2 8.0 0.00 0.79 0.79 82 1006.5